Home   Weather   Ramsey   Past weeks

Flag for Isle of Man Past Weather in Ramsey, Isle of Man — Yesterday and Last 2 Weeks

Now
41 °F

Passing clouds.


Feels Like: 33 °F
Forecast: N/A
Wind: 16 mph from Southeast

Location: Isle Of Man / Ronaldsway Airport

Current Time: Jan 21, 2017 at 10:07:57 pm

Latest Report: Jan 21, 2017 at 8:50 pm


Visibility: N/A

Pressure: 30.24 "Hg

Humidity: 81%

Dew Point: 36 °F

Location of RamseyLocation

Past Weather in Ramsey — Graph

°F

Ramsey Temperature Yesterday

Maximum temperature yesterday: 46 °F (at 11:20 am)
Minimum temperature yesterday: 41 °F (at 5:20 pm)
Average temperature yesterday: 44 °F

High & Low Weather Summary for the Past Weeks

 TemperatureHumidityPressure
High52 °F (Jan 6, 8:50 pm)100% (Jan 6, 8:20 pm)30.63 "Hg (Jan 6, 8:20 pm)
Low36 °F (Jan 13, 3:50 am)50% (Jan 9, 8:50 pm)29.45 "Hg (Jan 12, 4:50 pm)
Average46 °F82%30.20 "Hg
* Reported Jan 6 8:20 pm — Jan 21 8:50 pm, Ramsey, Weather by CustomWeather, © 2017

Note: Actual official high and low records may vary slightly from our data, if they occured in-between our weather recording intervals... More about our weather records

Advertising

Ramsey Weather History for the Previous 24 Hours

Scroll right to see more
 ConditionsComfort  
Time TempWeatherWind HumidityBarometerVisibility
8:50 pm
Sat, Jan 21
41 °FPassing clouds.16 mph81%30.24 "HgN/A
8:20 pm41 °FPassing clouds.17 mph81%30.24 "HgN/A
7:50 pm41 °FPassing clouds.20 mph81%30.24 "HgN/A
7:20 pm41 °FPassing clouds.18 mph81%30.24 "HgN/A
6:50 pm41 °FPassing clouds.21 mph81%30.24 "HgN/A
6:20 pm41 °FPassing clouds.18 mph81%30.27 "HgN/A
5:50 pm41 °FPassing clouds.17 mph81%30.27 "HgN/A
5:20 pm41 °FPassing clouds.16 mph81%30.27 "HgN/A
4:50 pm41 °FPassing clouds.16 mph81%30.27 "HgN/A
4:20 pm41 °FPartly sunny.17 mph81%30.27 "HgN/A
3:50 pm41 °FPartly sunny.18 mph81%30.30 "HgN/A
3:20 pm41 °FPartly sunny.17 mph81%30.30 "HgN/A
2:50 pm41 °FPartly sunny.20 mph81%30.30 "HgN/A
2:20 pm41 °FPartly sunny.17 mph81%30.30 "HgN/A
1:50 pm41 °FPartly sunny.18 mph81%30.30 "HgN/A
1:20 pm41 °FPartly sunny.21 mph87%30.30 "HgN/A
12:50 pm43 °FScattered clouds.20 mph76%30.33 "HgN/A
12:20 pm43 °FScattered clouds.21 mph76%30.33 "HgN/A
11:50 am43 °FPassing clouds.18 mph76%30.33 "HgN/A
11:20 am43 °FPassing clouds.21 mph71%30.36 "HgN/A
10:50 am43 °FPassing clouds.18 mph71%30.36 "HgN/A
10:20 am43 °FPassing clouds.16 mph71%30.36 "HgN/A
9:50 am41 °FPassing clouds.18 mph70%30.36 "HgN/A
9:20 am41 °FPassing clouds.20 mph76%30.36 "HgN/A
8:50 am41 °FPassing clouds.21 mph76%30.36 "HgN/A
8:20 am41 °FPassing clouds.21 mph76%30.36 "HgN/A
7:50 am41 °FClear.18 mph76%30.36 "Hg10 mi
7:20 am41 °FClear.22 mph70%30.36 "Hg10 mi
6:50 am41 °FClear.21 mph70%30.36 "Hg10 mi
6:20 am41 °FClear.20 mph70%30.36 "Hg10 mi
5:50 am41 °FClear.21 mph76%30.36 "Hg10 mi
5:20 am41 °FClear.21 mph76%30.36 "Hg10 mi
3:50 am41 °FClear.18 mph76%30.39 "Hg10 mi
2:50 am41 °FClear.16 mph81%30.42 "Hg10 mi
12:50 am41 °FClear.21 mph70%30.42 "Hg10 mi
11:50 pm
Fri, Jan 20
43 °FClear.20 mph61%30.45 "Hg10 mi
10:50 pm43 °FClear.18 mph61%30.45 "Hg10 mi
Weather by CustomWeather, © 2017

See weather overviewHow to use our weather pages